Location: Lafig�re
(44.4503°N, 4.0357°E)
Time: 01:04:39
(UTC+00:00)

Tiros 1 - Pass Details

Date: 22 January 2021
Orbit: 630 x 664 km, 48.4° (Epoch: 06 March)

Event Time Altitude Azimuth Distance (km) Brightness Sun altitude
Rises 18:42:48 0° 239° (WSW) 2,921 11.6 -21.8°
Reaches altitude 10° 18:45:07 10° 238° (WSW) 2,011 10.6 -22.2°
Maximum altitude 18:49:44 75° 154° (SSE) 655 7.0 -23.0°
Enters shadow 18:49:59 72° 121° (ESE) 664 6.9 -23.1°
